STARLINK-11492, 62224

Orbit data source: Space-Track

STARLINK-11492, 62224 is a payload satellite owned by SpaceX/Seattle (US) in LEO that was launched on Thu, 05 Dec 2024 UTC via an FALCON 9 launch vehicle from the Air Force Western Test Range (AFWTR). Payload-class satellites include a variety of spacecraft equipped with specific instruments for various scientific and technological missions. These include communications satellites like Starlink; space stations such as the ISS; scientific satellites like the Hubble; Earth observation satellites from companies like Planet Labs, Umbra, and HawkEye 360; GPS; miniature CubeSats for education and research; and military/defense satellites.

Loading next visibility...
Identifier
62224, 2024-231G
Orbit
LEO
Country
Flag of USUS
Related business
Manufacturer
SpaceX/Seattle
Mission
Operational spacecraft
Bus & Motor
STARLINK V2MD, Unknown motor
Mass
960 kg wet, ~910 kg dry
Launch date (UTC)
2024-12-05 (1 year ago)
Launch vehicle
FALCON 9
Launch site
Air Force Western Test Range (AFWTR)
Object type
Payload
Rocket body
Debris
Shape & HBR
Unknown shape, 18.1 m
Radar Cross Section
Large (>1 m²)

Expand to show TLE details & history
Last TLE update: 18 hours ago

TLE from 18 hours ago
0 STARLINK-11492
1 62224U 24231G   26033.38746752  .00106009  00000-0  86716-3 0  9991
2 62224  53.1570 275.5422 0000834  93.5297 266.5816 15.69753614 67864
Epoch: 2026-02-02T09:17Z
TLE epoch observation values (Epoch: 2026-02-02T09:17:57.193Z)
Latitude
-0.00006°
Longitude
3.47037°
Altitude
360.55 km
Speed
7.694 km/s
True Right ascension
18h 22m 10s
True Declination
0° 00' 00"
Sunlit
Object was in daylight at epoch
Visualization orbit readout
Latitude
Unknown
Longitude
Unknown
Altitude
Unknown
Speed
Unknown
Apparent Right ascension
Unknown
Apparent Declination
Unknown
Sunlit
N/A
Visualization observer readout
Local Sidereal Time
05:25:09
Azimuth
Unknown
Elevation
Unknown
Doppler factor
Unknown
Orbital elements
Apogee altitude
360.425 km
Perigee altitude
359.301 km
Semi-major axis
6,738 km
Eccentricity
0.00008
Inclination
53.157°
RAAN
275.5422°
Arg. of periapsis
93.5297°
True anomaly
266.57206°
Mean anomaly
266.5816°
Eccentric anomaly
266.57683°
Mean motion
3.92416 °/min
Orbital period
91.74 mins
BSTAR
0.00086716
Loading maneuver chart data...
Computing Atmospheric mass density...
Loading historical data...
Loading historical data...
Loading historical data...
Loading historical data...
Loading historical data...
Loading historical data...
Loading historical data...

Documentation

Showing up to 5 results
|